Location: Kenwood
(42.6237°N, 73.7732°W)
Time: 14:13:24
(UTC+00:00)

Daily predictions for brighter satellites

Satellite Brightness Start Highest point End
(mag) Time Altitude Azimuth Time Altitude Azimuth Time Altitude Azimuth
Cosmos 2219 Rocket 3.8 21:44:57 10° WSW 21:49:49 30° NW 21:54:45 10° N
Cosmos 1943 Rocket 3.5 21:47:41 10° N 21:51:27 18° NE 21:55:11 10° E
Cosmos 1908 Rocket 3.9 21:47:45 10° N 21:51:57 43° ENE 21:56:05 10° SSE
Cosmos 292 Rocket 3.8 21:47:40 10° NNW 21:52:31 63° ENE 21:57:18 10° SSE
Cosmos 2333 Rocket 3.9 21:47:54 10° WSW 21:52:49 29° NW 21:57:47 10° N
SJ-7 4.4 21:50:41 10° SSE 21:54:50 81° ENE 21:58:58 10° N
Envisat 3.9 21:50:56 10° ESE 21:55:06 26° ENE 21:59:18 10° N
FALCON 9 DEB 4.2 21:52:55 10° W 21:56:12 37° NNW 21:59:29 10° NE
Cosmos 2251 Rocket 4.5 21:53:33 10° SW 21:58:41 49° WNW 22:03:48 10° N
COSMO-SKYMED 1 4.2 21:58:15 10° NE 22:01:02 17° E 22:03:49 10° SE
CZ-4 R/B 3.1 21:59:38 10° E 22:01:07 12° ENE 22:02:35 10° NE
Cosmos 1441 Rocket 3.7 21:58:45 10° N 22:02:17 36° ENE 22:05:46 10° SE
H-2A R/B 3.0 21:59:13 10° SE 22:02:43 43° ENE 22:06:14 10° N
Cosmos 407 Rocket 3.9 21:57:56 10° S 22:02:51 46° ESE 22:07:52 10° NNE
YAOGAN 1 4.3 22:01:45 10° E 22:03:24 12° ENE 22:05:04 10° NE
Aureole 1 Rocket 2.2 22:01:08 10° SSW 22:04:07 90° WNW 22:07:27 10° NNE
ISS -0.4 22:03:47 10° W 22:05:38 14° SW 22:07:29 10° SSW
Okean-O 3.3 22:01:49 10° SE 22:05:42 31° ENE 22:09:37 10° N
Cosmos 1689 Rocket 4.2 22:04:14 10° N 22:06:52 28° WNW 22:09:29 10° SW
Genesis I 3.1 22:05:51 10° NNW 22:09:45 86° NE 22:13:34 10° SE
Cosmos 1092 Rocket 4.0 22:04:03 10° S 22:10:17 69° E 22:16:30 10° NNE
USA 267 3.4 22:04:49 10° ESE 22:11:09 55° NNE 22:17:29 10° NW
Cosmos 1733 Rocket 4.5 22:07:08 10° NNW 22:11:18 42° W 22:15:28 10° SSW
Cosmos 921 Rocket 3.1 22:10:34 10° N 22:14:48 54° ENE 22:19:05 10° SSE
Cosmos 1666 2.5 22:11:48 10° N 22:15:32 81° E 22:19:15 10° S
Cosmos 1975 4.0 22:13:00 10° NNE 22:16:09 22° ENE 22:19:17 10° SE
ATLAS 5 CENTAUR R/B 1.9 22:19:58 10° WSW 22:22:15 34° NW 22:23:57 12° NNE
NOAA 12 4.2 22:17:41 10° SSE 22:22:50 55° ENE 22:27:59 10° N
YAOGAN 6 3.6 22:20:50 10° SE 22:23:45 25° ENE 22:26:45 10° NNE
Cosmos 2297 3.7 22:23:46 10° NNW 22:29:30 83° ENE 22:35:09 10° SSE
STARLINK-48 4.2 22:26:05 10° SSW 22:29:41 38° SE 22:31:56 19° ENE
Lacrosse 5 2.9 22:29:38 10° S 22:34:01 30° SE 22:36:40 19° ENE
BREEZE-M R/B 3.5 22:36:09 10° WNW 22:41:01 36° N 22:42:22 25° NE
Cosmos 1428 Rocket 4.4 22:37:14 10° S 22:43:24 77° E 22:49:40 10° N
S3M 4.2 22:41:04 10° N 22:46:55 42° ENE 22:52:41 10° SSE
Cosmos 1782 Rocket 3.6 22:42:52 10° N 22:47:14 83° W 22:51:33 10° S
NOSS 7 (H) 4.1 22:44:35 10° SSW 22:47:59 72° SE 22:49:08 35° NE
Cosmos 1867 3.5 22:43:34 10° NNW 22:49:04 75° ENE 22:54:29 10° SE
SKYMED 2 3.7 22:45:38 13° NNE 22:49:26 53° E 22:53:41 10° S
Cosmos 1743 2.7 22:50:03 10° N 22:53:57 85° W 22:57:50 10° S
Meteor 2-9 Rocket 4.3 22:49:55 10° N 22:55:40 55° ENE 23:01:17 10° SSE
Cosmos 1553 Rocket 4.0 22:51:11 10° N 22:57:35 68° E 23:03:57 10° SSE
Abrixas rocket 1.8 22:54:54 10° WSW 22:57:55 89° NW 22:58:23 60° ENE
STARLINK-61 4.5 22:56:03 10° SSW 22:59:35 31° SE 23:00:09 29° ESE
Uosat 12 SS-18 rocket 4.3 22:55:19 10° NNW 22:59:53 48° NE 23:01:36 31° ESE
Cosmos 1190 Rocket 4.4 22:55:25 10° SSW 23:00:34 63° WNW 23:05:44 10° NNE
Cosmos 1943 3.8 22:55:43 10° S 23:00:46 35° ESE 23:02:18 30° ENE
Okean 2 Rocket 3.0 22:58:11 10° N 23:02:40 62° E 23:07:07 10° SSE
Cosmos 676 Rocket 3.9 22:58:10 10° SSW 23:03:20 83° ESE 23:07:18 18° NNE
CZ-4C R/B 2.5 22:59:00 10° S 23:03:33 40° ESE 23:05:04 32° ENE
Cosmos 2026 Rocket 4.3 22:58:23 10° SSW 23:04:22 65° W 23:10:26 10° N
Cosmos 489 Rocket 4.4 22:58:08 10° NNW 23:04:32 81° ENE 23:10:54 10° SSE
STARLINK-43 4.0 23:02:01 10° WSW 23:05:36 46° NNW 23:06:43 34° NNE
Cosmos 2221 Rocket 3.4 23:01:25 10° S 23:05:52 79° E 23:09:32 15° N
Lacrosse 5 rocket 3.7 23:05:18 10° NNW 23:06:38 11° N 23:07:30 11° N
Sich 1 Rocket 3.9 23:03:55 10° NNW 23:08:16 65° W 23:12:36 10° S
Cosmos 1954 Rocket 3.9 23:04:06 10° SSW 23:09:16 88° ESE 23:12:58 20° NNE
CZ-4 R/B 4.3 23:06:07 10° SSE 23:10:16 80° ENE 23:14:27 10° N
USA 116 4.3 23:07:48 19° NNE 23:11:31 60° E 23:16:16 10° S
SL-4 R/B 3.1 23:08:44 10° NW 23:11:58 29° NNE 23:11:58 29° NNE
Cosmos 2369 Rocket 2.2 23:08:56 10° NNW 23:14:30 57° ENE 23:19:34 13° SE
Okean 1 4.4 23:11:28 10° SSW 23:15:16 43° WNW 23:19:05 10° N
IRIDIUM 104 4.3 23:14:28 10° SSE 23:19:34 58° E 23:22:40 23° NNE
SL-16 R/B 3.5 23:14:52 10° SW 23:20:06 37° WNW 23:25:24 10° N
USA 215 4.1 23:16:39 21° NNE 23:20:38 41° NNW 23:26:39 10° W
STARLINK-80 3.7 23:22:01 10° WSW 23:25:44 54° NNW 23:25:59 53° NNW
Cosmos 405 Rocket 3.6 23:23:02 10° N 23:28:13 36° S 23:30:30 10° S
Cosmos 1603 3.6 23:21:29 10° SSW 23:27:12 78° ESE 23:29:35 37° NNE
IRIDIUM 114 4.2 23:23:31 10° S 23:28:41 71° E 23:31:48 24° NNE
Cosmos 1674 Rocket 4.3 23:24:34 10° S 23:27:32 38° SSE 23:27:32 38° SSE
STARLINK-26 4.5 23:25:50 10° SSW 23:28:07 32° S 23:28:07 32° S
Cosmos 1140 Rocket 4.5 23:24:47 10° SW 23:29:39 43° WNW 23:33:47 14° N
Envisat 4.4 23:29:13 10° SSW 23:33:55 39° W 23:38:41 10° NNW
Cosmos 2315 Rocket 4.2 23:28:14 10° N 23:40:16 10° SSE 23:40:20 10° SSE
Cosmos 883 Rocket 4.4 23:28:22 10° N 23:34:38 60° E 23:40:47 10° SSE
CZ-4 R/B 1.9 23:31:53 10° S 23:35:41 55° W 23:39:28 10° NNW
Cosmos 1943 Rocket 2.2 23:30:16 10° NNW 23:35:55 82° WSW 23:41:29 10° SSE
Cosmos 1741 Rocket 4.0 23:30:57 10° S 23:36:00 59° ESE 23:36:00 59° ESE
COSMO-SKYMED 1 3.6 23:34:11 16° N 23:37:25 45° WNW 23:41:33 10° SW
IRIDIUM 103 4.2 23:32:37 10° S 23:37:50 86° E 23:40:58 25° N
Cosmos 1300 Rocket 3.6 23:33:38 10° NNW 23:37:57 76° W 23:42:14 10° S
YAOGAN 1 2.7 23:34:36 10° S 23:38:55 72° W 23:43:14 10° NNW
USA 81 3.9 23:33:50 10° S 23:38:59 65° E 23:38:59 65° E
Meteor 2-8 Rocket 4.3 23:41:00 10° N 23:47:02 65° E 23:53:03 10° SSE
CSL-04 Rocket 3.9 23:42:37 10° S 23:47:51 68° WSW 23:53:10 10° NNW
Meteor 2-4 Rocket 4.0 23:43:55 10° SSW 23:49:46 71° W 23:53:36 22° N
Cosmos 1850 Rocket 3.9 23:47:50 10° SSW 23:52:59 86° SSE 23:52:59 86° SSE
